Wind_Speed
29 31 27 37 30 27 26 30 26 23 23 21 23 25 25 27 26 23 25 26 24 24 21 27 29 31 28 27 27 26 26 21 23 25 24 26 35 37 33 34 34 32 32
30 33 36 28 31 26 23 24 27 23 25 24 22 24 25 24 23 23 27 25 24 24 24 22 24 24 27 29 27 26 28 27 23 26 29 27 30 35 37 36 38 33 35
35 28 33 16 17 23 27 28 30 27 27 28 30 27 28 26 24 24 26 27 26 26 27 27 25 24 24 26 26 27 25 26 25 25 29 32 30 34 35 36 39 37 36
35 38 33 35 37 33 32 24 22 25 25 27 29 32 33 31 29 27 26 29 29 29 29 29 29 27 24 23 25 25 28 26 27 28 30 32 33 33 31 36 39 39 35
32 37 31 34 37 40 37 31 27 30 27 27 27 28 31 32 32 31 30 28 28 28 31 32 31 31 29 28 25 24 24 28 31 29 29 34 34 34 34 33 43 39 40
23 31 42 44 43 39 43 32 29 25 26 29 31 32 33 34 36 35 35 34 33 33 35 37 36 37 36 34 31 31 30 28 29 33 33 32 36 37 36 37 41 50 45
31 22 26 32 36 36 43 39 34 34 37 37 35 35 37 39 39 39 37 38 38 37 37 37 39 40 42 41 40 38 37 35 34 33 35 36 35 36 38 40 43 48 56
37 34 29 30 31 38 37 42 41 41 41 41 41 42 43 44 42 42 42 43 42 39 40 43 42 43 44 46 47 48 46 43 41 38 36 37 39 38 40 40 44 46 50
45 45 42 38 32 36 40 42 44 46 45 45 46 47 46 47 49 49 47 48 47 47 46 45 46 47 47 48 49 48 47 46 46 44 43 41 42 43 41 41 43 46 50
47 46 51 50 52 51 46 47 50 51 50 50 51 51 50 51 52 52 55 54 53 54 54 54 53 53 53 52 52 53 52 50 48 47 46 45 45 45 47 45 44 48 48
53 52 51 51 54 48 55 54 53 56 57 55 54 53 53 54 55 55 57 58 61 61 61 63 62 59 58 56 57 57 58 59 57 54 53 50 48 48 48 50 48 44 46
49 49 51 52 55 54 55 55 59 60 60 61 62 60 59 60 60 59 60 62 63 64 66 67 68 68 68 68 67 65 63 62 62 61 60 59 56 53 52 52 52 50 49
30 32 35 38 40 42 49 50 50 51 52 57 61 61 60 60 61 63 66 67 69 70 71 71 71 71 71 71 72 73 72 71 70 67 67 66 63 62 59 58 58 57 55
20 25 30 33 35 35 37 40 39 40 43 47 51 53 57 60 61 63 67 71 74 76 76 76 76 77 79 78 76 74 75 73 73 75 75 72 72 71 68 67 65 63 63
26 28 29 30 32 33 35 36 38 41 41 44 48 53 57 57 59 59 60 61 62 65 71 76 79 79 81 83 83 84 82 80 78 77 78 79 80 79 78 77 74 73 69
27 29 32 35 38 41 42 44 46 49 51 52 54 57 58 59 61 62 63 64 65 67 68 69 72 76 77 81 85 86 87 86 86 86 84 83 81 81 82 84 82 81 78
25 28 32 36 39 43 45 49 51 53 55 58 60 62 62 63 63 64 65 65 64 67 71 74 75 78 81 82 83 86 87 88 89 88 89 92 92 89 87 84 85 86 86
25 27 28 31 36 42 47 50 54 56 59 62 65 66 64 63 64 66 68 72 76 79 81 81 81 85 86 87 87 87 88 90 89 91 90 90 92 95 96 93 90 88 86
29 29 31 34 36 39 40 46 51 53 55 58 60 63 64 66 70 74 79 81 83 87 89 90 90 91 92 95 95 96 95 94 94 95 93 93 91 92 95 98 99 95 93
34 33 35 36 38 41 43 49 52 55 58 62 65 68 70 72 78 81 83 88 90 93 94 96 97 101 100 101 103 105 103 105 102 100 100 98 97 95 94 92 96 99 100
36 38 40 41 44 43 47 50 54 56 58 63 66 69 75 82 85 86 88 89 92 96 99 100 102 109 112 110 109 109 107 107 109 108 105 105 104 101 97 96 93 93 98
44 48 47 45 48 51 53 56 55 56 59 61 67 71 74 75 81 84 83 89 95 96 100 103 106 107 109 119 119 117 114 114 110 113 110 112 111 107 105 101 98 97 95
48 45 47 49 52 54 55 57 59 60 62 66 70 72 76 83 82 87 94 98 94 102 107 110 111 116 118 120 117 115 113 112 116 110 111 114 113 115 112 107 103 100 98
47 51 51 51 58 61 67 67 66 68 70 73 79 78 88 93 96 97 101 102 104 101 108 109 112 115 118 114 115 112 107 109 112 120 117 114 119 115 115 114 108 104 102
57 55 58 63 66 69 71 73 70 76 76 78 85 86 94 97 103 108 108 109 107 105 107 113 113 110 109 110 112 112 114 109 107 113 116 125 118 120 119 117 115 109 108
60 63 68 67 71 70 76 81 80 88 89 96 94 101 101 107 107 116 116 112 109 105 108 111 112 113 115 108 105 105 105 105 102 107 109 124 127 123 120 120 120 117 113
Wind_Direction
214 216 204 222 233 246 237 244 248 250 251 256 255 250 247 256 258 253 254 255 260 259 260 248 252 258 264 269 273 272 264 264 245 246 241 234 232 232 231 233 231 232 232
203 213 209 224 233 251 256 251 242 244 246 243 245 257 255 260 260 255 254 258 261 264 264 261 261 261 264 266 263 263 265 259 259 251 244 240 237 237 238 231 230 233 236
208 204 208 215 232 245 251 260 253 246 247 250 244 239 248 257 256 255 261 268 268 266 267 270 272 272 273 273 267 261 259 261 255 250 248 247 242 240 243 237 227 229 239
217 230 236 250 246 245 248 238 244 241 252 253 254 251 250 252 253 258 273 274 270 264 264 266 268 268 267 267 271 267 261 258 257 252 245 245 246 240 241 238 237 224 236
208 224 224 232 239 245 243 246 244 242 241 251 255 257 255 252 255 259 263 263 265 268 263 263 265 264 264 263 261 265 264 260 257 253 251 248 245 248 244 238 233 226 225
200 219 238 242 244 240 242 244 246 252 259 260 259 260 263 259 259 255 258 261 266 269 270 268 266 264 263 259 258 260 260 260 256 257 256 252 250 248 248 244 237 231 226
210 213 232 237 241 243 243 243 247 254 256 255 255 262 269 269 264 262 262 259 260 260 262 266 267 266 262 262 263 261 259 258 257 253 252 254 252 250 247 247 243 238 234
228 230 234 241 249 244 253 255 257 261 260 260 264 267 268 269 269 266 266 265 264 266 268 269 266 265 266 261 262 262 260 258 256 254 251 249 249 248 248 248 247 244 241
237 239 243 246 252 256 257 256 261 265 265 266 266 268 267 266 266 266 267 269 270 270 266 265 264 265 264 263 261 260 261 260 259 257 254 251 246 244 245 247 247 247 244
243 242 242 248 256 256 255 259 264 262 266 268 267 267 268 268 267 266 263 263 261 262 263 263 262 262 262 263 263 260 257 256 255 256 258 256 253 249 245 244 244 245 247
245 245 249 254 258 262 263 265 262 262 265 268 268 269 269 269 269 267 267 267 265 262 261 260 258 256 255 256 258 259 259 259 259 256 253 252 254 252 249 247 248 245 246
251 259 258 261 268 270 272 269 267 266 267 266 268 273 274 273 275 272 272 272 271 269 266 264 263 263 264 262 259 259 258 258 256 254 256 254 252 249 250 249 250 253 249
264 264 265 268 269 269 266 269 271 269 269 268 268 270 270 270 269 270 270 268 269 268 268 267 265 265 265 266 265 264 263 262 259 256 254 252 252 250 249 250 251 250 254
276 272 269 269 271 273 275 275 275 275 271 269 268 265 265 265 266 267 267 268 268 268 267 266 265 266 264 261 261 262 264 261 259 259 257 254 253 250 250 248 250 252 253
291 286 284 282 283 284 283 279 278 276 274 271 269 269 268 270 270 271 272 272 272 272 271 267 265 264 264 264 264 262 258 259 259 259 258 258 256 254 254 252 251 250 250
290 289 285 282 280 278 276 274 276 277 277 276 275 275 276 277 276 276 275 274 273 273 271 272 272 269 265 264 263 263 262 261 259 257 257 257 256 254 253 252 252 252 252
294 294 292 289 285 283 283 284 283 281 282 281 279 281 281 281 280 280 276 274 273 275 275 272 270 271 270 267 264 262 260 260 260 261 260 257 255 254 254 251 251 251 252
299 297 293 292 290 284 284 284 280 278 279 280 282 282 278 275 276 280 279 276 273 272 272 270 271 271 270 270 269 266 265 263 259 258 259 259 258 255 253 251 251 250 249
301 293 298 299 296 291 285 280 277 279 279 277 274 273 273 275 276 276 275 273 274 274 276 274 272 271 269 267 267 267 264 263 262 260 258 258 257 257 254 253 251 249 250
301 297 298 297 299 296 293 288 282 283 280 281 281 280 279 277 277 277 276 274 275 275 276 275 276 273 270 267 266 264 264 263 260 261 260 257 257 256 256 255 251 250 248
305 303 301 304 302 300 300 299 290 287 292 294 292 288 287 286 285 284 283 281 280 279 275 274 273 272 270 268 268 269 265 263 262 260 258 258 257 256 256 257 255 251 248
308 307 306 308 308 307 306 308 305 308 306 308 311 301 296 293 289 286 286 290 286 278 280 274 270 269 269 268 269 270 265 263 263 262 259 257 256 255 253 253 254 253 251
314 313 311 314 315 315 311 314 311 309 304 310 308 306 309 309 308 300 296 302 295 282 279 276 276 273 271 270 272 269 266 264 262 260 262 257 256 253 253 252 251 252 251
314 317 318 318 323 321 321 317 310 309 308 306 309 311 309 309 309 308 307 301 296 288 281 280 277 276 275 274 273 271 267 263 259 257 257 256 252 251 251 250 249 248 249
311 315 319 319 320 317 318 325 319 321 316 315 317 309 316 314 313 312 311 306 301 295 289 284 282 278 275 273 271 269 265 262 258 255 253 252 251 248 249 247 247 245 245
310 317 322 317 316 318 318 324 322 324 324 322 321 321 317 318 312 312 309 308 302 295 289 285 281 281 281 276 268 265 264 261 256 252 250 246 247 247 245 246 245 244 244
Height
10800 10803 10808 10809 10811 10813 10816 10816 10817 10818 10820 10821 10823 10824 10826 10827 10828 10829 10831 10832 10832 10833 10835 10836 10837 10837 10838 10839 10840 10841 10843 10845 10846 10848 10850 10851 10853 10854 10857 10861 10861 10863 10864
10796 10799 10803 10806 10807 10807 10809 10811 10813 10814 10815 10817 10819 10820 10821 10822 10823 10825 10826 10827 10829 10829 10831 10833 10833 10833 10833 10834 10836 10837 10838 10840 10842 10844 10845 10847 10848 10851 10853 10855 10857 10858 10857
10793 10796 10798 10797 10799 10802 10804 10806 10808 10809 10810 10812 10814 10816 10818 10819 10820 10822 10822 10823 10824 10825 10825 10827 10827 10828 10829 10829 10830 10832 10833 10834 10837 10839 10840 10841 10843 10845 10847 10849 10851 10853 10852
10788 10789 10791 10790 10792 10795 10797 10801 10803 10804 10805 10807 10810 10812 10814 10815 10816 10817 10818 10819 10818 10819 10820 10821 10822 10823 10824 10826 10826 10827 10828 10829 10831 10833 10835 10836 10838 10839 10841 10844 10846 10847 10847
10781 10783 10782 10783 10787 10790 10793 10797 10799 10800 10800 10801 10804 10805 10807 10808 10809 10811 10812 10813 10813 10813 10814 10815 10816 10818 10819 10821 10822 10822 10823 10825 10826 10827 10829 10831 10832 10834 10835 10836 10838 10840 10841
10779 10781 10782 10784 10788 10791 10793 10794 10795 10796 10798 10799 10800 10801 10802 10803 10804 10805 10805 10806 10807 10808 10810 10811 10812 10813 10814 10815 10816 10818 10818 10819 10820 10821 10823 10824 10826 10827 10829 10831 10831 10833 10833
10776 10778 10779 10781 10784 10787 10788 10790 10791 10793 10794 10795 10796 10796 10796 10797 10798 10798 10800 10801 10801 10801 10802 10803 10804 10806 10808 10809 10810 10811 10812 10812 10813 10814 10816 10818 10819 10820 10822 10822 10824 10825 10826
10774 10776 10778 10778 10780 10783 10784 10785 10786 10787 10789 10789 10790 10790 10791 10791 10791 10792 10792 10793 10794 10795 10796 10796 10797 10799 10800 10801 10802 10803 10804 10805 10806 10806 10808 10809 10810 10812 10814 10815 10817 10818 10819
10772 10772 10774 10774 10775 10777 10779 10779 10779 10780 10781 10782 10782 10782 10783 10784 10784 10785 10785 10785 10786 10787 10788 10788 10789 10790 10791 10791 10792 10793 10795 10797 10798 10799 10800 10801 10801 10803 10805 10807 10809 10810 10811
10767 10768 10769 10770 10771 10773 10774 10773 10773 10774 10774 10774 10774 10775 10775 10775 10775 10775 10775 10775 10775 10777 10778 10779 10779 10780 10780 10781 10782 10782 10784 10786 10787 10790 10792 10793 10794 10795 10796 10796 10798 10800 10801
10763 10764 10764 10765 10766 10765 10767 10768 10768 10768 10767 10767 10766 10765 10765 10764 10763 10763 10763 10763 10764 10764 10765 10766 10767 10768 10767 10769 10770 10770 10772 10774 10776 10778 10780 10783 10784 10785 10787 10788 10788 10789 10791
10762 10761 10760 10760 10759 10758 10759 10760 10760 10760 10760 10759 10758 10756 10754 10753 10752 10752 10752 10751 10751 10750 10750 10751 10751 10752 10753 10753 10755 10756 10758 10759 10761 10764 10766 10769 10772 10773 10775 10777 10778 10780 10781
10756 10755 10754 10754 10752 10751 10751 10750 10749 10749 10748 10746 10746 10744 10742 10739 10738 10737 10735 10735 10736 10735 10735 10735 10735 10736 10737 10737 10738 10739 10741 10744 10745 10748 10750 10753 10755 10759 10761 10763 10765 10768 10769
10750 10749 10748 10746 10745 10743 10741 10739 10737 10735 10734 10732 10731 10729 10726 10725 10724 10722 10720 10720 10719 10719 10719 10719 10718 10718 10718 10719 10720 10721 10723 10725 10727 10729 10733 10737 10739 10741 10744 10746 10751 10753 10756
10744 10743 10742 10741 10739 10738 10735 10732 10729 10726 10724 10721 10719 10717 10716 10715 10712 10710 10708 10707 10705 10703 10701 10699 10698 10698 10699 10699 10700 10701 10704 10706 10708 10710 10712 10717 10721 10723 10726 10729 10733 10735 10739
10737 10736 10735 10733 10731 10729 10726 10724 10721 10718 10715 10712 10709 10705 10703 10701 10699 10697 10694 10692 10689 10686 10682 10680 10679 10679 10679 10679 10679 10680 10680 10684 10688 10691 10692 10694 10698 10702 10705 10709 10712 10716 10720
10731 10730 10727 10725 10723 10720 10718 10715 10712 10709 10705 10701 10698 10695 10693 10691 10687 10683 10679 10675 10672 10668 10666 10664 10661 10658 10657 10659 10660 10659 10659 10659 10662 10666 10669 10672 10674 10679 10683 10688 10690 10695 10700
10724 10721 10719 10716 10713 10711 10708 10706 10703 10699 10695 10691 10688 10684 10679 10674 10670 10665 10660 10656 10650 10647 10644 10642 10640 10639 10636 10636 10636 10636 10636 10639 10637 10638 10642 10646 10649 10653 10658 10664 10669 10673 10679
10716 10713 10710 10706 10703 10699 10696 10692 10688 10684 10680 10676 10670 10665 10660 10654 10649 10643 10638 10633 10629 10625 10623 10620 10616 10615 10611 10611 10612 10610 10611 10613 10613 10614 10616 10618 10622 10626 10631 10637 10644 10650 10655
10708 10704 10700 10696 10692 10688 10685 10681 10676 10671 10666 10660 10654 10648 10640 10634 10628 10623 10617 10612 10608 10601 10595 10592 10590 10585 10584 10584 10583 10585 10584 10583 10585 10588 10590 10592 10594 10598 10603 10609 10616 10625 10630
10698 10694 10690 10686 10682 10678 10673 10668 10663 10658 10653 10646 10639 10631 10624 10619 10613 10606 10600 10592 10584 10577 10568 10561 10558 10556 10551 10551 10553 10555 10555 10554 10556 10560 10560 10562 10568 10574 10580 10583 10589 10596 10603
10688 10684 10679 10674 10668 10663 10657 10652 10646 10639 10632 10626 10618 10611 10605 10596 10589 10580 10572 10564 10554 10546 10535 10528 10522 10521 10516 10511 10515 10519 10526 10520 10523 10526 10527 10532 10538 10544 10550 10555 10561 10569 10575
10674 10668 10663 10658 10652 10646 10640 10633 10626 10620 10613 10606 10597 10588 10578 10570 10561 10552 10542 10531 10519 10511 10502 10493 10487 10483 10483 10475 10473 10477 10483 10490 10486 10487 10495 10498 10505 10510 10517 10528 10535 10541 10549
10659 10654 10648 10642 10637 10631 10624 10618 10611 10603 10593 10581 10572 10562 10549 10535 10523 10511 10501 10489 10478 10469 10462 10454 10447 10444 10440 10438 10431 10433 10438 10448 10454 10457 10454 10460 10467 10477 10485 10496 10504 10514 10519
10645 10638 10633 10627 10621 10616 10607 10599 10590 10582 10573 10564 10551 10539 10522 10506 10488 10473 10462 10448 10433 10420 10409 10404 10398 10396 10395 10396 10391 10389 10391 10402 10412 10418 10425 10417 10428 10441 10451 10460 10473 10483 10488
10630 10623 10617 10612 10606 10596 10588 10577 10567 10557 10545 10533 10517 10506 10492 10477 10460 10442 10425 10407 10392 10381 10372 10362 10351 10345 10338 10342 10349 10349 10349 10352 10363 10375 10387 10386 10388 10399 10415 10427 10437 10449 10457